Weather observations for the past three days for
Owensboro, Owensboro-Daviess County Airport
Imperial (Metric)
Date Time (cdt) Wind (mph) Vis. (mi.) Weather Sky Cond. Temperature (ºF) Relative Humidity Wind Chill (°F) Heat Index (°F) Pressure Precipitation (in)
Air Dwpt 6 hour altimeter (in) sea level (mb) 1 hr 3 hr 6 hr
Max. Min.
13 06:56 S 3 10.00 Fair CLR 71.1 70 73 69.1 96% 30.21 1022.5
13 05:56 Calm 10.00 Fair CLR 71.1 69.1 94% 30.19 1022.0
13 04:56 Calm 10.00 Fair CLR 70 69.1 97% 30.17 1021.2
13 03:56 Calm 10.00 Fair CLR 70 69.1 97% 30.15 1020.7
13 02:56 S 3 10.00 Fair CLR 70 69.1 97% 30.14 1020.4
13 01:56 Calm 10.00 Fair CLR 71.1 69.1 94% 30.15 1020.4
13 00:56 Calm 10.00 Fair CLR 72 69.1 79 72 91% 30.15 1020.8
12 23:56 S 5 10.00 Fair CLR 72 70 94% 30.16 1020.9
12 22:56 Calm 10.00 Fair CLR 75 69.1 82% 75 30.15 1020.7
12 21:56 Calm 10.00 Fair CLR 73.9 69.1 85% 30.14 1020.1
12 20:56 S 3 10.00 Fair CLR 75 70 84% 75 30.12 1019.8
12 19:56 SW 3 10.00 Fair CLR 78.1 70 76% 80 30.13 1019.8
12 18:56 SW 5 10.00 Fair CLR 80.1 70 87.1 80.1 71% 83 30.12 1019.5
12 17:56 NW 5 10.00 Fair CLR 81 69.1 67% 84 30.1 1018.9
12 16:56 W 9 10.00 Fair CLR 84 70 63% 88 30.1 1018.9
12 15:56 W 8 10.00 Mostly Cloudy BKN044 84.9 73 68% 92 30.1 1019.0
12 13:56 NW 3 10.00 Mostly Cloudy BKN035 BKN044 86 73 65% 93 30.1 1019.0
12 12:56 NW 7 10.00 Mostly Cloudy SCT034 BKN042 BKN075 87.1 73 88 73 63% 95 30.11 1019.4
12 11:56 W 10 10.00 Mostly Cloudy SCT032 BKN042 BKN055 87.1 73.9 65% 95 30.12 1019.6
12 10:56 SW 6 10.00 Mostly Cloudy FEW030 BKN041 BKN055 84 73.9 72% 91 30.13 1019.9
12 09:56 SW 5 10.00 A Few Clouds FEW070 82.9 73 72% 89 30.12 1019.5
12 08:56 SW 5 10.00 A Few Clouds FEW075 79 73.9 85% 83 30.12 1019.6
12 07:56 S 7 10.00 A Few Clouds FEW070 75.9 71.1 85% 76 30.11 1019.5
12 06:56 S 5 10.00 A Few Clouds FEW075 73 71.1 75.9 70 94% 30.1 1018.9
12 05:56 Calm 10.00 Fair CLR 72 69.1 91% 30.08 1018.3
12 04:56 Calm 10.00 Fair CLR 71.1 69.1 94% 30.06 1017.7
12 03:56 Calm 10.00 Fair CLR 72 69.1 91% 30.05 1017.4
12 02:56 Calm 10.00 Fair CLR 73 69.1 87% 30.05 1017.1
12 01:56 Calm 10.00 Fair CLR 75 68 79% 76 30.06 1017.6
12 00:56 E 3 10.00 Fair CLR 75 69.1 86 73.9 82% 75 30.07 1017.9
11 23:56 E 3 10.00 A Few Clouds FEW110 75.9 68 77% 77 30.08 1018.1
11 22:56 Calm 10.00 Fair CLR 77 69.1 77% 79 30.06 1017.7
11 21:56 Calm 10.00 Fair CLR 79 68 69% 81 30.05 1017.4
11 20:56 Calm 10.00 Fair CLR 80.1 68 67% 83 30.04 1016.8
11 19:56 W 3 10.00 A Few Clouds FEW110 84.9 68 57% 88 30.04 1016.8
11 18:56 W 3 10.00 Fair CLR 86 69.1 88 86 57% 90 30.02 1016.3
11 17:56 W 3 10.00 Fair CLR 87.1 68 53% 91 30.02 1016.1
11 16:56 W 7 10.00 Fair CLR 88 68 52% 92 30.02 1016.3
11 15:56 W 6 10.00 Fair CLR 88 68 52% 92 30.03 1016.6
11 14:56 W 7 10.00 Fair CLR 88 69.1 54% 92 30.04 1016.7
11 13:56 SW 5 10.00 A Few Clouds FEW070 87.1 68 53% 91 30.05 1017.3
11 12:56 W 6 10.00 A Few Clouds FEW042 87.1 66.9 87.1 72 51% 90 30.06 1017.6
11 11:56 W 6 10.00 A Few Clouds FEW035 84 69.1 61% 88 30.07 1017.8
11 09:56 Calm 10.00 Fair CLR 82 70 67% 86 30.07 1017.8
11 08:56 SW 3 10.00 Fair CLR 78.1 72 82% 80 30.07 1018.0
11 07:56 Calm 10.00 Fair CLR 75 71.1 88% 75 30.07 1018.0
11 06:56 Calm 7.00 Fair CLR 71.1 70 72 69.1 96% 30.06 1017.6
11 05:56 Calm 7.00 Fair CLR 70 69.1 97% 30.04 1017.0
11 04:56 S 3 8.00 Fair CLR 69.1 69.1 100% 30.02 1016.2
11 03:56 S 6 10.00 Fair CLR 70 69.1 97% 30.01 1016.0
11 02:56 S 3 10.00 Fair CLR 70 69.1 97% 30.01 1015.7
11 01:56 Calm 10.00 Fair CLR 72 70 94% 30.01 1015.9
11 00:56 Calm 10.00 Fair CLR 72 69.1 82 71.1 91% 30.01 1016.0
10 23:56 SW 6 10.00 Fair CLR 72 70 94% 30.02 1016.1
10 22:56 Calm 10.00 Partly Cloudy SCT048 73 70 90% 30.02 1016.2
10 21:56 S 3 10.00 Fair CLR 73.9 70 88% 30.01 1016.0
10 20:56 SW 5 10.00 Fair CLR 75.9 69.1 79% 77 29.99 1015.4
10 19:56 SW 5 10.00 Fair CLR 79 70 74% 82 29.98 1015.0
10 18:56 SW 6 10.00 A Few Clouds FEW045 82 68 82.9 80.1 63% 85 29.98 1014.8
10 17:56 SW 8 10.00 Partly Cloudy SCT040 82.9 68 61% 86 29.98 1014.7
10 16:56 W 7 10.00 Partly Cloudy SCT038 82.9 66.9 59% 86 29.98 1014.9
10 15:56 W 8 10.00 Partly Cloudy SCT040 82.9 68 61% 86 29.98 1015.0
10 14:56 W 8 10.00 Mostly Cloudy BKN046 BKN055 82 66.9 60% 85 29.99 1015.3
10 13:56 W 13 10.00 Mostly Cloudy BKN041 81 66.9 62% 83 29.99 1015.2
10 12:56 W 10 G 16 10.00 A Few Clouds FEW038 81 64 81 69.1 57% 83 29.99 1015.2
10 11:56 W 10 10.00 Fair CLR 79 64.9 62% 81 29.99 1015.2
10 10:56 W 9 10.00 Fair CLR 77 64.9 66% 79 29.99 1015.1
10 09:56 NW 10 10.00 Partly Cloudy SCT023 75 64.9 71% 77 29.97 1014.6
10 08:56 W 12 10.00 Fair CLR 73 64.9 76% 29.96 1014.2
10 07:56 W 15 10.00 Mostly Cloudy SCT018 BKN022 71.1 64.9 81% 29.94 1013.7
Date Time (cdt) Wind (mph) Vis. (mi.) Weather Sky Cond. Air Dwpt Max. Min. Relative Humidity Wind Chill (°F) Heat Index (°F) altimeter (in) sea level (mb) 1 hr 3 hr 6 hr
6 hour
Temperature (ºF) Pressure Precipitation (in)